Location: Newark
(25.6108°S, 54.5803°W)
Time: 03:52:54
(UTC+00:00)

deb Explorer IX - Pass Details

Date: 30 October 2020
Orbit: 538 x 1104 km, 38.8° (Epoch: 29 November)

Event Time Altitude Azimuth Distance (km) Brightness Sun altitude
Rises 22:17:24 0° 242° (WSW) 3,199 ? -6.0°
Reaches altitude 10° 22:20:54 10° 221° (SW) 2,151 ? -6.7°
Maximum altitude 22:23:57 16° 182° (S) 1,681 ? -7.3°
Drops below altitude 10° 22:26:47 10° 143° (SE) 1,967 ? -7.9°
Sets 22:29:46 0° 121° (ESE) 2,794 ? -8.6°
